^^
Station Historical Data
Daily Summary for January 2, 2017 Units:  English    Metric   Both
« Previous Day
Next Day »
Daily Weekly Monthly Yearly Custom
  High: Low: Average:
Temperature: 36.8 °F 28.7 °F 33.9 °F
Dew Point: 35.2 °F 23.1 °F 30.8 °F
Humidity: 95 % 73 % 88 %
Wind Speed: 6.3 mph 0.0 mph 1.9 mph
Wind Gust: 10.4 mph - -
Wind:- - ENE
Pressure: 30.49 in 30.24 in -
Precipitation: 0.23 in    
Historical Graphs
 
 
Tabular Data for January 2, 2017
Time Temperature Dew Point Pressure Wind Wind Speed Wind Gust Humidity Rainfall Rate (Hourly) solar Conditions
00:04 29.1 °F 23.4 °F 30.42 in North 1.8 mph 2.3 mph 79 % 0.00 in 0.0 W/m2 CLR
00:09 29.0 °F 23.3 °F 30.42 in Calm     79 % 0.00 in 0.0 W/m2 CLR
00:14 29.1 °F 23.4 °F 30.42 in Calm     79 % 0.00 in 0.0 W/m2 CLR
00:19 29.2 °F 23.8 °F 30.42 in Calm     80 % 0.00 in 0.0 W/m2 CLR
00:24 29.2 °F 23.8 °F 30.43 in Calm     80 % 0.00 in 0.0 W/m2 CLR
00:29 29.3 °F 23.6 °F 30.43 in Calm     79 % 0.00 in 0.0 W/m2 CLR
00:34 29.2 °F 23.8 °F 30.43 in Calm     80 % 0.00 in 0.0 W/m2 CLR
00:39 29.1 °F 23.4 °F 30.44 in Calm     79 % 0.00 in 0.0 W/m2 CLR
00:44 28.8 °F 23.1 °F 30.44 in Calm     79 % 0.00 in 0.0 W/m2 CLR
00:49 28.7 °F 23.3 °F 30.44 in Calm     80 % 0.00 in 0.0 W/m2 CLR
00:54 28.8 °F 23.4 °F 30.44 in Calm     80 % 0.00 in 0.0 W/m2 CLR
00:59 28.7 °F 23.3 °F 30.43 in Calm     80 % 0.00 in 0.0 W/m2 CLR
01:04 28.8 °F 23.4 °F 30.44 in Calm     80 % 0.00 in 0.0 W/m2 CLR
01:09 28.8 °F 23.4 °F 30.44 in Calm     80 % 0.00 in 0.0 W/m2 CLR
01:15 28.9 °F 23.8 °F 30.43 in North 1.3 mph 2.0 mph 81 % 0.00 in 0.0 W/m2 CLR
01:20 29.4 °F 24.0 °F 30.44 in Calm     80 % 0.00 in 0.0 W/m2 CLR
01:25 29.7 °F 24.3 °F 30.44 in North 0.2 mph 1.0 mph 80 % 0.00 in 0.0 W/m2 CLR
01:30 29.6 °F 23.9 °F 30.44 in Calm     79 % 0.00 in 0.0 W/m2 CLR
01:35 29.4 °F 23.7 °F 30.43 in North 0.9 mph 2.3 mph 79 % 0.00 in 0.0 W/m2 CLR
01:40 29.7 °F 24.0 °F 30.43 in North 0.2 mph 1.0 mph 79 % 0.00 in 0.0 W/m2 CLR
01:45 30.0 °F 24.3 °F 30.43 in North 0.5 mph 2.3 mph 79 % 0.00 in 0.0 W/m2 CLR
01:50 30.2 °F 24.2 °F 30.43 in North 1.1 mph 2.3 mph 78 % 0.00 in 0.0 W/m2 CLR
01:55 30.3 °F 24.3 °F 30.43 in Calm     78 % 0.00 in 0.0 W/m2 CLR
02:00 30.5 °F 24.1 °F 30.43 in Calm     77 % 0.00 in 0.0 W/m2 CLR
02:05 30.4 °F 23.7 °F 30.43 in Calm     76 % 0.00 in 0.0 W/m2 CLR
02:10 30.4 °F 23.7 °F 30.44 in Calm     76 % 0.00 in 0.0 W/m2 CLR
02:15 30.1 °F 23.8 °F 30.44 in North 1.0 mph 2.3 mph 77 % 0.00 in 0.0 W/m2 CLR
02:20 29.9 °F 23.6 °F 30.43 in North 1.9 mph 3.5 mph 77 % 0.00 in 0.0 W/m2 CLR
02:25 30.1 °F 23.8 °F 30.44 in North 1.5 mph 2.0 mph 77 % 0.00 in 0.0 W/m2 CLR
02:30 30.3 °F 24.0 °F 30.44 in Calm     77 % 0.00 in 0.0 W/m2 CLR
02:35 30.5 °F 24.1 °F 30.44 in Calm   1.0 mph 77 % 0.00 in 0.0 W/m2 CLR
02:40 30.5 °F 24.1 °F 30.44 in North 1.6 mph 2.3 mph 77 % 0.00 in 0.0 W/m2 CLR
02:45 30.4 °F 24.1 °F 30.43 in North 2.8 mph 3.5 mph 77 % 0.00 in 0.0 W/m2 CLR
02:50 30.4 °F 24.1 °F 30.44 in North 1.0 mph 4.0 mph 77 % 0.00 in 0.0 W/m2 CLR
02:55 30.7 °F 24.3 °F 30.44 in North 1.0 mph 4.0 mph 77 % 0.00 in 0.0 W/m2 CLR
03:00 30.7 °F 24.0 °F 30.43 in North 2.3 mph 3.0 mph 76 % 0.00 in 0.0 W/m2 CLR
03:05 30.7 °F 24.0 °F 30.44 in North 2.0 mph 3.0 mph 76 % 0.00 in 0.0 W/m2 CLR
03:10 30.8 °F 23.8 °F 30.44 in North 2.0 mph 3.0 mph 75 % 0.00 in 0.0 W/m2 CLR
03:15 30.9 °F 23.9 °F 30.45 in Calm   1.2 mph 75 % 0.00 in 0.0 W/m2 CLR
03:20 30.7 °F 23.7 °F 30.45 in North 2.0 mph 4.0 mph 75 % 0.00 in 0.0 W/m2 CLR
03:25 30.5 °F 23.5 °F 30.45 in Calm   3.0 mph 75 % 0.00 in 0.0 W/m2 CLR
03:30 30.4 °F 23.7 °F 30.46 in Calm   1.2 mph 76 % 0.00 in 0.0 W/m2 CLR
03:35 30.7 °F 24.0 °F 30.46 in Calm   3.0 mph 76 % 0.00 in 0.0 W/m2 CLR
03:40 31.0 °F 24.0 °F 30.46 in NNW 2.5 mph 3.5 mph 75 % 0.00 in 0.0 W/m2 CLR
03:45 31.1 °F 24.1 °F 30.47 in NNW 0.6 mph 2.3 mph 75 % 0.00 in 0.0 W/m2 CLR
03:50 31.3 °F 24.3 °F 30.47 in Calm     75 % 0.00 in 0.0 W/m2 CLR
03:55 31.4 °F 24.4 °F 30.47 in Calm     75 % 0.00 in 0.0 W/m2 CLR
04:00 31.4 °F 24.4 °F 30.46 in Calm     75 % 0.00 in 0.0 W/m2 CLR
04:05 31.4 °F 24.4 °F 30.46 in Calm     75 % 0.00 in 0.0 W/m2 CLR
04:10 31.6 °F 24.3 °F 30.46 in Calm     74 % 0.00 in 0.0 W/m2 CLR
04:15 31.7 °F 24.4 °F 30.45 in NNW 2.7 mph 3.5 mph 74 % 0.00 in 0.0 W/m2 CLR
04:20 31.7 °F 24.4 °F 30.45 in NNW 0.9 mph 2.3 mph 74 % 0.00 in 0.0 W/m2 CLR
04:25 31.7 °F 24.4 °F 30.45 in Calm     74 % 0.00 in 0.0 W/m2 CLR
04:30 31.8 °F 24.5 °F 30.45 in Calm     74 % 0.00 in 0.0 W/m2 CLR
04:35 31.9 °F 24.6 °F 30.45 in Calm     74 % 0.00 in 0.0 W/m2 CLR
04:40 31.9 °F 24.6 °F 30.46 in Calm     74 % 0.00 in 0.0 W/m2 CLR
04:45 31.9 °F 24.2 °F 30.46 in Calm     73 % 0.00 in 0.0 W/m2 CLR
04:50 32.0 °F 24.3 °F 30.46 in Calm     73 % 0.00 in 0.0 W/m2 CLR
04:55 32.0 °F 24.3 °F 30.46 in Calm     73 % 0.00 in 0.0 W/m2 CLR
04:56 32.0 °F 24.3 °F 30.46 in Calm     73 % 0.00 in 0.0 W/m2 CLR
05:01 32.0 °F 24.6 °F 30.46 in Calm     74 % 0.00 in 0.0 W/m2 CLR
05:06 32.2 °F 24.8 °F 30.46 in Calm     74 % 0.00 in 0.0 W/m2 CLR
05:11 32.2 °F 25.5 °F 30.46 in Calm     76 % 0.01 in 0.0 W/m2 RA
05:16 32.0 °F 25.6 °F 30.46 in Calm     77 % 0.01 in 0.0 W/m2 RA
05:21 31.9 °F 25.8 °F 30.46 in Calm     78 % 0.01 in 0.0 W/m2
05:26 31.9 °F 26.1 °F 30.46 in Calm     79 % 0.01 in 0.0 W/m2
05:31 32.0 °F 26.5 °F 30.46 in Calm     80 % 0.01 in 0.0 W/m2 CLR
05:36 31.8 °F 26.3 °F 30.46 in Calm     80 % 0.01 in 0.0 W/m2 CLR
05:41 31.8 °F 26.9 °F 30.46 in Calm     82 % 0.02 in 0.0 W/m2 RA
05:46 31.8 °F 27.2 °F 30.47 in Calm     83 % 0.02 in 0.0 W/m2
05:51 31.8 °F 27.2 °F 30.46 in Calm     83 % 0.02 in 0.0 W/m2
05:56 31.6 °F 27.0 °F 30.46 in Calm     83 % 0.03 in 0.0 W/m2 RA
06:01 31.6 °F 27.3 °F 30.46 in Calm     84 % 0.03 in 0.0 W/m2 RA
06:06 31.7 °F 27.4 °F 30.46 in Calm     84 % 0.03 in 0.0 W/m2
06:11 31.6 °F 27.3 °F 30.46 in Calm     84 % 0.02 in 0.0 W/m2 CLR
06:16 31.8 °F 27.5 °F 30.46 in Calm     84 % 0.02 in 0.0 W/m2 CLR
06:21 31.7 °F 27.7 °F 30.46 in NNW 1.4 mph 2.3 mph 85 % 0.02 in 0.0 W/m2 CLR
06:26 31.8 °F 27.8 °F 30.46 in Calm     85 % 0.03 in 0.0 W/m2 RA
06:31 31.9 °F 27.9 °F 30.46 in NNW 0.9 mph 2.3 mph 85 % 0.03 in 0.0 W/m2 RA
06:36 31.8 °F 28.1 °F 30.46 in NNW 0.3 mph 2.3 mph 86 % 0.02 in 0.0 W/m2
06:41 31.8 °F 28.1 °F 30.46 in Calm     86 % 0.03 in 0.0 W/m2 RA
06:46 31.6 °F 27.9 °F 30.47 in NNW 1.7 mph 3.5 mph 86 % 0.03 in 0.0 W/m2 RA
06:51 31.7 °F 28.0 °F 30.47 in NNW 1.6 mph 3.5 mph 86 % 0.03 in 0.0 W/m2
06:56 31.7 °F 28.0 °F 30.47 in North 1.1 mph 2.3 mph 86 % 0.02 in 0.0 W/m2 CLR
07:01 31.7 °F 28.0 °F 30.47 in North 0.6 mph 2.3 mph 86 % 0.02 in 0.0 W/m2 OVC
07:06 31.8 °F 28.4 °F 30.47 in North 0.9 mph 2.3 mph 87 % 0.02 in 0.0 W/m2 OVC
07:11 31.9 °F 28.5 °F 30.47 in Calm     87 % 0.02 in 0.0 W/m2 OVC
07:16 31.9 °F 28.5 °F 30.47 in Calm     87 % 0.02 in 0.0 W/m2 OVC
07:21 32.0 °F 28.6 °F 30.47 in Calm     87 % 0.02 in 0.0 W/m2 OVC
07:26 32.1 °F 28.7 °F 30.47 in Calm     87 % 0.01 in 0.0 W/m2 OVC
07:31 32.1 °F 28.7 °F 30.47 in Calm     87 % 0.01 in 0.0 W/m2 OVC
07:36 32.2 °F 29.0 °F 30.47 in North 0.6 mph 4.0 mph 88 % 0.01 in 0.0 W/m2 OVC
07:41 32.1 °F 28.7 °F 30.47 in North 1.6 mph 2.3 mph 87 % 0.00 in 0.0 W/m2 OVC
07:46 32.0 °F 28.6 °F 30.47 in NNE 2.1 mph 3.5 mph 87 % 0.00 in 0.0 W/m2 OVC
07:51 31.9 °F 28.5 °F 30.47 in Calm     87 % 0.00 in 5.0 W/m2 SCT
07:56 32.0 °F 28.8 °F 30.47 in Calm     88 % 0.00 in 9.0 W/m2 SCT
08:01 32.1 °F 28.7 °F 30.47 in NNE 1.5 mph 3.5 mph 87 % 0.00 in 11.0 W/m2 BKN
08:06 32.1 °F 28.7 °F 30.48 in Calm     87 % 0.00 in 11.0 W/m2 BKN
08:11 32.1 °F 28.7 °F 30.48 in NNE 0.4 mph 2.3 mph 87 % 0.00 in 12.0 W/m2 BKN
08:16 32.2 °F 28.8 °F 30.48 in Calm   1.2 mph 87 % 0.00 in 16.0 W/m2 BKN
08:21 32.3 °F 28.9 °F 30.48 in NNE 0.9 mph 2.3 mph 87 % 0.00 in 18.0 W/m2 BKN
08:26 32.3 °F 28.9 °F 30.47 in NNE 1.1 mph 3.0 mph 87 % 0.00 in 25.0 W/m2 BKN
08:31 32.4 °F 29.0 °F 30.47 in NNE 0.5 mph 2.3 mph 87 % 0.00 in 32.0 W/m2 BKN
08:36 32.5 °F 29.1 °F 30.47 in Calm   1.2 mph 87 % 0.00 in 35.0 W/m2 BKN
08:41 32.4 °F 29.0 °F 30.48 in Calm     87 % 0.00 in 33.0 W/m2 BKN
08:46 32.5 °F 29.1 °F 30.48 in NNE 1.1 mph 2.3 mph 87 % 0.00 in 35.0 W/m2 BKN
08:51 32.5 °F 29.1 °F 30.48 in NNE 1.4 mph 3.0 mph 87 % 0.00 in 33.0 W/m2 BKN
08:56 32.6 °F 29.2 °F 30.48 in NNE 0.5 mph 2.3 mph 87 % 0.00 in 53.0 W/m2 BKN
09:01 32.7 °F 29.3 °F 30.48 in Calm   2.3 mph 87 % 0.00 in 54.0 W/m2 BKN
09:06 32.7 °F 29.3 °F 30.48 in Calm     87 % 0.00 in 49.0 W/m2 BKN
09:11 32.7 °F 29.3 °F 30.48 in Calm   2.3 mph 87 % 0.00 in 53.0 W/m2 BKN
09:16 32.9 °F 29.7 °F 30.48 in Calm     88 % 0.00 in 56.0 W/m2 BKN
09:21 33.1 °F 29.9 °F 30.49 in Calm     88 % 0.00 in 49.0 W/m2 BKN
09:26 33.2 °F 30.0 °F 30.48 in NNE 1.2 mph 3.5 mph 88 % 0.00 in 40.0 W/m2 OVC
09:31 33.4 °F 30.2 °F 30.48 in NNE 0.9 mph 3.5 mph 88 % 0.00 in 28.0 W/m2 OVC
09:36 33.4 °F 30.2 °F 30.49 in NNE 1.9 mph 2.3 mph 88 % 0.00 in 26.0 W/m2 OVC
09:41 33.3 °F 30.1 °F 30.49 in Calm     88 % 0.00 in 26.0 W/m2 OVC
09:46 33.4 °F 30.2 °F 30.49 in Calm     88 % 0.00 in 32.0 W/m2 OVC
09:48 33.4 °F 30.2 °F 30.48 in Calm     88 % 0.00 in 33.0 W/m2 OVC
09:53 33.4 °F 30.2 °F 30.48 in NNE 0.3 mph 2.3 mph 88 % 0.00 in 33.0 W/m2 OVC
09:58 33.4 °F 30.2 °F 30.48 in Calm     88 % 0.00 in 33.0 W/m2 OVC
10:03 33.4 °F 30.5 °F 30.48 in NNE 1.0 mph 2.3 mph 89 % 0.00 in 35.0 W/m2 OVC
10:08 33.6 °F 30.7 °F 30.48 in NNE 0.9 mph 3.5 mph 89 % 0.00 in 39.0 W/m2 OVC
10:13 33.6 °F 30.7 °F 30.48 in NNE 3.1 mph 3.5 mph 89 % 0.01 in 42.0 W/m2 RA
10:18 33.6 °F 30.7 °F 30.47 in NNE 3.9 mph 5.8 mph 89 % 0.01 in 51.0 W/m2 RA
10:23 33.7 °F 30.8 °F 30.47 in NNE 1.9 mph 3.5 mph 89 % 0.01 in 47.0 W/m2 OVC
10:28 33.7 °F 30.8 °F 30.47 in NNE 1.7 mph 3.5 mph 89 % 0.01 in 46.0 W/m2 OVC
10:33 33.8 °F 30.9 °F 30.47 in NNE 3.3 mph 5.8 mph 89 % 0.02 in 49.0 W/m2 RA
10:38 33.9 °F 31.0 °F 30.47 in NE 2.2 mph 3.5 mph 89 % 0.02 in 49.0 W/m2 RA
10:43 33.9 °F 31.3 °F 30.47 in NE 3.3 mph 4.6 mph 90 % 0.02 in 54.0 W/m2 OVC
10:48 34.0 °F 31.4 °F 30.47 in NNE 2.2 mph 3.5 mph 90 % 0.02 in 53.0 W/m2 OVC
10:53 34.0 °F 31.4 °F 30.47 in NNE 1.1 mph 4.6 mph 90 % 0.02 in 46.0 W/m2 OVC
10:58 34.1 °F 31.5 °F 30.47 in NNE 2.3 mph 4.6 mph 90 % 0.03 in 39.0 W/m2 RA
11:03 34.1 °F 31.5 °F 30.46 in Calm   1.2 mph 90 % 0.03 in 39.0 W/m2 RA
11:08 34.3 °F 31.7 °F 30.47 in NNE 1.2 mph 2.3 mph 90 % 0.03 in 37.0 W/m2 OVC
11:13 34.3 °F 31.7 °F 30.47 in NNE 1.1 mph 2.3 mph 90 % 0.03 in 42.0 W/m2 RA
11:18 34.3 °F 31.7 °F 30.46 in Calm   2.3 mph 90 % 0.03 in 42.0 W/m2 RA
11:23 34.4 °F 32.0 °F 30.46 in Calm   1.2 mph 91 % 0.04 in 42.0 W/m2 RA
11:28 34.4 °F 32.0 °F 30.46 in NNE 0.1 mph 1.2 mph 91 % 0.04 in 47.0 W/m2 RA
11:33 34.5 °F 32.1 °F 30.45 in NNE 1.9 mph 3.5 mph 91 % 0.04 in 46.0 W/m2 RA
11:38 34.5 °F 32.1 °F 30.45 in NNE 2.2 mph 3.5 mph 91 % 0.04 in 47.0 W/m2 RA
11:43 34.6 °F 32.2 °F 30.44 in NNE 0.6 mph 3.5 mph 91 % 0.05 in 46.0 W/m2 RA
11:48 34.7 °F 32.3 °F 30.44 in NNE 1.1 mph 3.5 mph 91 % 0.06 in 51.0 W/m2 RA
11:53 34.7 °F 32.3 °F 30.44 in Calm   1.2 mph 91 % 0.06 in 44.0 W/m2 RA
11:58 34.7 °F 32.3 °F 30.44 in NNE 0.3 mph 3.0 mph 91 % 0.06 in 46.0 W/m2 RA
12:03 34.9 °F 32.8 °F 30.43 in Calm     92 % 0.06 in 46.0 W/m2 RA
12:08 34.9 °F 32.8 °F 30.43 in NNE 1.1 mph 3.5 mph 92 % 0.07 in 40.0 W/m2 RA
12:13 35.0 °F 32.9 °F 30.43 in NNE 0.2 mph 3.5 mph 92 % 0.07 in 47.0 W/m2 RA
12:18 35.1 °F 33.0 °F 30.43 in NNE 0.2 mph 2.3 mph 92 % 0.07 in 46.0 W/m2 RA
12:23 35.2 °F 33.1 °F 30.43 in Calm   2.3 mph 92 % 0.07 in 53.0 W/m2 RA
12:28 35.3 °F 33.2 °F 30.43 in NNE 1.7 mph 3.5 mph 92 % 0.07 in 54.0 W/m2 RA
12:33 35.3 °F 33.2 °F 30.42 in NNE 0.5 mph 3.5 mph 92 % 0.07 in 54.0 W/m2 RA
12:38 35.4 °F 33.3 °F 30.42 in NNE 1.2 mph 4.6 mph 92 % 0.07 in 51.0 W/m2 RA
12:43 35.4 °F 33.3 °F 30.42 in NNE 1.0 mph 3.0 mph 92 % 0.07 in 56.0 W/m2 RA
12:48 35.6 °F 33.5 °F 30.42 in NNE 2.7 mph 4.0 mph 92 % 0.06 in 58.0 W/m2 RA
12:49 35.6 °F 33.8 °F 30.41 in NNE 2.5 mph 3.5 mph 93 % 0.06 in 60.0 W/m2 RA
12:54 35.7 °F 33.9 °F 30.41 in NNE 1.5 mph 3.5 mph 93 % 0.06 in 60.0 W/m2 OVC
12:59 35.7 °F 33.6 °F 30.41 in NE 0.5 mph 2.0 mph 92 % 0.05 in 58.0 W/m2 OVC
13:04 35.8 °F 34.0 °F 30.41 in NE 1.7 mph 3.5 mph 93 % 0.04 in 62.0 W/m2 OVC
13:09 35.8 °F 34.0 °F 30.41 in NE 0.1 mph 1.2 mph 93 % 0.04 in 49.0 W/m2 OVC
13:14 35.9 °F 34.1 °F 30.40 in NE 1.8 mph 3.5 mph 93 % 0.03 in 51.0 W/m2 OVC
13:19 35.9 °F 34.1 °F 30.41 in NE 1.3 mph 3.5 mph 93 % 0.03 in 39.0 W/m2 OVC
13:24 36.0 °F 34.2 °F 30.41 in NNE 2.5 mph 3.5 mph 93 % 0.02 in 44.0 W/m2 OVC
13:29 36.1 °F 34.3 °F 30.40 in NNE 2.3 mph 3.5 mph 93 % 0.03 in 49.0 W/m2 RA
13:34 36.3 °F 34.5 °F 30.40 in NNE 2.4 mph 4.6 mph 93 % 0.02 in 54.0 W/m2 RA
13:39 36.3 °F 34.5 °F 30.40 in NNE 1.8 mph 5.8 mph 93 % 0.02 in 46.0 W/m2 OVC
13:44 36.4 °F 34.6 °F 30.40 in NE 2.2 mph 3.5 mph 93 % 0.01 in 53.0 W/m2 OVC
13:49 36.4 °F 34.6 °F 30.39 in NNE 6.0 mph 8.1 mph 93 % 0.01 in 56.0 W/m2 OVC
13:54 36.4 °F 34.6 °F 30.39 in NE 4.2 mph 7.0 mph 93 % 0.01 in 49.0 W/m2 OVC
13:59 36.5 °F 34.7 °F 30.39 in NNE 5.7 mph 9.2 mph 93 % 0.01 in 49.0 W/m2 OVC
14:04 36.5 °F 34.7 °F 30.39 in NNE 5.0 mph 8.1 mph 93 % 0.01 in 46.0 W/m2 OVC
14:09 36.5 °F 34.7 °F 30.39 in NNE 3.5 mph 5.8 mph 93 % 0.01 in 37.0 W/m2 OVC
14:14 36.5 °F 34.7 °F 30.39 in NNE 4.3 mph 5.8 mph 93 % 0.01 in 37.0 W/m2 OVC
14:19 36.4 °F 34.6 °F 30.39 in NNE 3.2 mph 4.0 mph 93 % 0.01 in 37.0 W/m2 OVC
14:24 36.3 °F 34.5 °F 30.39 in NNE 2.6 mph 5.0 mph 93 % 0.01 in 35.0 W/m2 OVC
14:29 36.3 °F 34.5 °F 30.39 in NNE 3.5 mph 5.8 mph 93 % 0.00 in 26.0 W/m2 OVC
14:34 36.3 °F 34.5 °F 30.39 in NNE 3.0 mph 4.6 mph 93 % 0.00 in 23.0 W/m2 OVC
14:39 36.3 °F 34.5 °F 30.39 in NNE 2.9 mph 4.6 mph 93 % 0.00 in 30.0 W/m2 OVC
14:44 36.3 °F 34.5 °F 30.39 in NE 4.1 mph 6.0 mph 93 % 0.00 in 28.0 W/m2 OVC
14:49 36.3 °F 34.5 °F 30.39 in NNE 3.6 mph 5.0 mph 93 % 0.00 in 28.0 W/m2 OVC
14:55 36.3 °F 34.5 °F 30.39 in NE 4.4 mph 6.9 mph 93 % 0.00 in 25.0 W/m2 OVC
15:00 36.2 °F 34.4 °F 30.39 in NE 3.8 mph 5.8 mph 93 % 0.00 in 23.0 W/m2 OVC
15:05 36.2 °F 34.4 °F 30.39 in NNE 2.8 mph 6.9 mph 93 % 0.00 in 21.0 W/m2 OVC
15:10 36.2 °F 34.6 °F 30.39 in NNE 4.4 mph 5.8 mph 94 % 0.00 in 23.0 W/m2 OVC
15:15 36.2 °F 34.6 °F 30.39 in NNE 3.2 mph 3.5 mph 94 % 0.00 in 23.0 W/m2 OVC
15:20 36.2 °F 34.6 °F 30.39 in NE 1.7 mph 2.3 mph 94 % 0.01 in 26.0 W/m2 RA
15:25 36.3 °F 34.7 °F 30.38 in NNE 1.0 mph 3.5 mph 94 % 0.01 in 25.0 W/m2 RA
15:30 36.3 °F 34.7 °F 30.38 in NE 2.8 mph 4.6 mph 94 % 0.01 in 18.0 W/m2
15:35 36.3 °F 34.7 °F 30.38 in NNE 2.0 mph 4.6 mph 94 % 0.01 in 12.0 W/m2 OVC
15:40 36.4 °F 34.8 °F 30.38 in NE 3.0 mph 6.0 mph 94 % 0.00 in 12.0 W/m2 OVC
15:45 36.4 °F 34.8 °F 30.38 in NE 1.8 mph 3.5 mph 94 % 0.01 in 12.0 W/m2 OVC
15:50 36.5 °F 34.9 °F 30.38 in NNE 1.6 mph 4.0 mph 94 % 0.01 in 12.0 W/m2 OVC
15:55 36.5 °F 34.9 °F 30.38 in NE 3.1 mph 3.5 mph 94 % 0.01 in 9.0 W/m2 OVC
16:00 36.5 °F 34.9 °F 30.38 in NNE 3.9 mph 6.9 mph 94 % 0.01 in 12.0 W/m2 OVC
16:05 36.5 °F 34.9 °F 30.38 in NNE 2.0 mph 7.0 mph 94 % 0.00 in 12.0 W/m2 OVC
16:10 36.5 °F 34.9 °F 30.38 in NNE 3.0 mph 5.0 mph 94 % 0.00 in 11.0 W/m2 OVC
16:15 36.5 °F 34.9 °F 30.38 in NNE 1.9 mph 3.5 mph 94 % 0.01 in 7.0 W/m2 OVC
16:20 36.6 °F 35.0 °F 30.38 in NNE 2.0 mph 4.0 mph 94 % 0.00 in 7.0 W/m2 OVC
16:25 36.6 °F 35.0 °F 30.38 in ENE 1.2 mph 3.5 mph 94 % 0.00 in 5.0 W/m2 OVC
16:30 36.6 °F 35.0 °F 30.38 in NE 2.2 mph 4.0 mph 94 % 0.00 in 0.0 W/m2 OVC
16:35 36.6 °F 35.0 °F 30.38 in NE 2.4 mph 3.5 mph 94 % 0.00 in 0.0 W/m2 OVC
16:40 36.7 °F 35.1 °F 30.38 in NNE 3.0 mph 4.0 mph 94 % 0.00 in 0.0 W/m2 OVC
16:45 36.7 °F 35.1 °F 30.38 in NNE 2.7 mph 4.0 mph 94 % 0.00 in 0.0 W/m2 OVC
16:50 36.7 °F 35.1 °F 30.37 in NNE 1.9 mph 3.5 mph 94 % 0.00 in 0.0 W/m2 OVC
16:55 36.7 °F 35.1 °F 30.38 in NNE 3.5 mph 5.8 mph 94 % 0.00 in 0.0 W/m2 OVC
17:00 36.7 °F 35.1 °F 30.38 in NNE 3.6 mph 4.6 mph 94 % 0.00 in 0.0 W/m2 CLR
17:05 36.7 °F 35.1 °F 30.38 in NE 2.2 mph 3.5 mph 94 % 0.00 in 0.0 W/m2 CLR
17:10 36.7 °F 35.1 °F 30.37 in NE 4.2 mph 6.0 mph 94 % 0.00 in 0.0 W/m2 CLR
17:15 36.7 °F 35.1 °F 30.37 in NNE 2.8 mph 3.5 mph 94 % 0.00 in 0.0 W/m2 CLR
17:20 36.7 °F 35.1 °F 30.37 in NE 3.4 mph 5.8 mph 94 % 0.00 in 0.0 W/m2 CLR
17:25 36.7 °F 35.1 °F 30.38 in NNE 3.9 mph 5.0 mph 94 % 0.00 in 0.0 W/m2 CLR
17:30 36.7 °F 35.1 °F 30.38 in NE 5.4 mph 10.4 mph 94 % 0.00 in 0.0 W/m2 CLR
17:35 36.7 °F 35.1 °F 30.38 in NE 3.5 mph 8.1 mph 94 % 0.00 in 0.0 W/m2 CLR
17:40 36.7 °F 35.1 °F 30.38 in NE 4.4 mph 5.8 mph 94 % 0.00 in 0.0 W/m2 CLR
17:45 36.7 °F 35.1 °F 30.38 in NE 4.6 mph 5.8 mph 94 % 0.00 in 0.0 W/m2 CLR
17:50 36.7 °F 35.1 °F 30.38 in NE 2.8 mph 4.6 mph 94 % 0.00 in 0.0 W/m2 CLR
17:55 36.7 °F 35.1 °F 30.38 in NE 2.3 mph 3.5 mph 94 % 0.00 in 0.0 W/m2 CLR
18:00 36.7 °F 35.1 °F 30.37 in NE 3.8 mph 5.8 mph 94 % 0.00 in 0.0 W/m2 CLR
18:05 36.7 °F 35.1 °F 30.37 in NE 3.5 mph 6.0 mph 94 % 0.01 in 0.0 W/m2 RA
18:10 36.7 °F 35.1 °F 30.37 in NE 3.1 mph 4.6 mph 94 % 0.01 in 0.0 W/m2 RA
18:15 36.7 °F 35.1 °F 30.37 in NE 2.6 mph 4.0 mph 94 % 0.01 in 0.0 W/m2
18:20 36.7 °F 35.1 °F 30.37 in NE 3.5 mph 5.8 mph 94 % 0.01 in 0.0 W/m2
18:25 36.7 °F 35.1 °F 30.37 in NE 1.8 mph 3.5 mph 94 % 0.01 in 0.0 W/m2
18:30 36.7 °F 35.1 °F 30.38 in NE 2.4 mph 4.0 mph 94 % 0.01 in 0.0 W/m2
18:35 36.7 °F 35.1 °F 30.37 in NNE 1.6 mph 3.5 mph 94 % 0.01 in 0.0 W/m2
18:40 36.8 °F 35.2 °F 30.37 in NNE 3.3 mph 4.6 mph 94 % 0.01 in 0.0 W/m2
18:45 36.8 °F 35.2 °F 30.37 in NNE 4.4 mph 8.1 mph 94 % 0.01 in 0.0 W/m2
18:50 36.8 °F 35.2 °F 30.37 in NE 2.4 mph 6.9 mph 94 % 0.01 in 0.0 W/m2
18:55 36.7 °F 35.1 °F 30.37 in NE 4.2 mph 5.8 mph 94 % 0.01 in 0.0 W/m2
19:00 36.7 °F 35.1 °F 30.37 in NNE 5.7 mph 8.0 mph 94 % 0.01 in 0.0 W/m2
19:05 36.6 °F 35.0 °F 30.37 in NNE 5.1 mph 5.8 mph 94 % 0.00 in 0.0 W/m2 CLR
19:10 36.6 °F 35.0 °F 30.37 in NNE 4.1 mph 8.0 mph 94 % 0.00 in 0.0 W/m2 CLR
19:15 36.5 °F 34.9 °F 30.36 in NE 4.4 mph 6.9 mph 94 % 0.00 in 0.0 W/m2 CLR
19:20 36.5 °F 34.9 °F 30.36 in NE 2.9 mph 3.5 mph 94 % 0.00 in 0.0 W/m2 CLR
19:25 36.4 °F 34.8 °F 30.36 in NNE 4.7 mph 8.1 mph 94 % 0.00 in 0.0 W/m2 CLR
19:30 36.3 °F 34.7 °F 30.35 in NE 3.5 mph 5.8 mph 94 % 0.00 in 0.0 W/m2 CLR
19:35 36.2 °F 34.6 °F 30.35 in NE 4.8 mph 5.8 mph 94 % 0.00 in 0.0 W/m2 CLR
19:40 36.2 °F 34.6 °F 30.35 in NE 4.4 mph 9.2 mph 94 % 0.00 in 0.0 W/m2 CLR
19:45 36.2 °F 34.6 °F 30.34 in NNE 4.6 mph 8.1 mph 94 % 0.00 in 0.0 W/m2 CLR
19:51 36.1 °F 34.5 °F 30.34 in NNE 4.2 mph 9.2 mph 94 % 0.00 in 0.0 W/m2 CLR
19:56 36.0 °F 34.4 °F 30.33 in NNE 4.3 mph 6.9 mph 94 % 0.00 in 0.0 W/m2 CLR
20:01 36.0 °F 34.4 °F 30.33 in NNE 5.4 mph 9.0 mph 94 % 0.00 in 0.0 W/m2 CLR
20:06 36.0 °F 34.4 °F 30.33 in NE 3.9 mph 6.9 mph 94 % 0.00 in 0.0 W/m2 CLR
20:11 35.9 °F 34.6 °F 30.33 in NE 3.8 mph 8.1 mph 95 % 0.00 in 0.0 W/m2 CLR
20:16 35.9 °F 34.6 °F 30.32 in NNE 4.1 mph 9.2 mph 95 % 0.00 in 0.0 W/m2 CLR
20:21 35.9 °F 34.6 °F 30.32 in ENE 4.0 mph 5.8 mph 95 % 0.00 in 0.0 W/m2 CLR
20:26 35.9 °F 34.6 °F 30.32 in NNE 5.3 mph 9.2 mph 95 % 0.00 in 0.0 W/m2 CLR
20:31 35.9 °F 34.3 °F 30.32 in NE 5.1 mph 6.9 mph 94 % 0.00 in 0.0 W/m2 CLR
20:36 35.9 °F 34.3 °F 30.31 in NNE 5.2 mph 6.0 mph 94 % 0.00 in 0.0 W/m2 CLR
20:41 35.8 °F 34.2 °F 30.31 in NE 3.5 mph 5.8 mph 94 % 0.00 in 0.0 W/m2 CLR
20:46 35.8 °F 34.2 °F 30.31 in NE 5.9 mph 9.0 mph 94 % 0.00 in 0.0 W/m2 CLR
20:51 35.8 °F 34.2 °F 30.30 in ENE 4.1 mph 5.8 mph 94 % 0.00 in 0.0 W/m2 CLR
20:56 35.8 °F 34.2 °F 30.30 in NNE 3.3 mph 4.6 mph 94 % 0.00 in 0.0 W/m2 CLR
21:01 35.8 °F 34.2 °F 30.30 in NE 2.5 mph 3.5 mph 94 % 0.00 in 0.0 W/m2 CLR
21:06 35.8 °F 34.2 °F 30.30 in NNE 3.3 mph 6.0 mph 94 % 0.00 in 0.0 W/m2 CLR
21:11 35.8 °F 34.2 °F 30.30 in NE 1.9 mph 3.5 mph 94 % 0.00 in 0.0 W/m2 CLR
21:16 35.8 °F 34.2 °F 30.29 in NE 1.6 mph 4.0 mph 94 % 0.00 in 0.0 W/m2 CLR
21:21 35.7 °F 34.1 °F 30.30 in NE 2.3 mph 4.6 mph 94 % 0.00 in 0.0 W/m2 CLR
21:26 35.7 °F 34.4 °F 30.29 in NE 2.6 mph 6.9 mph 95 % 0.00 in 0.0 W/m2 CLR
21:31 35.7 °F 34.1 °F 30.30 in NE 2.3 mph 6.9 mph 94 % 0.00 in 0.0 W/m2 CLR
21:36 35.7 °F 34.4 °F 30.30 in NNE 4.9 mph 10.4 mph 95 % 0.00 in 0.0 W/m2 CLR
21:41 35.7 °F 34.4 °F 30.30 in NNE 3.7 mph 4.6 mph 95 % 0.00 in 0.0 W/m2 CLR
21:46 35.7 °F 34.4 °F 30.30 in NE 4.2 mph 4.6 mph 95 % 0.00 in 0.0 W/m2 CLR
21:51 35.7 °F 34.4 °F 30.30 in NE 5.0 mph 8.1 mph 95 % 0.00 in 0.0 W/m2 CLR
21:56 35.7 °F 34.4 °F 30.31 in NE 3.4 mph 6.9 mph 95 % 0.00 in 0.0 W/m2 CLR
22:01 35.7 °F 34.4 °F 30.31 in NE 3.2 mph 4.6 mph 95 % 0.00 in 0.0 W/m2 CLR
22:06 35.8 °F 34.5 °F 30.31 in NE 2.7 mph 4.6 mph 95 % 0.00 in 0.0 W/m2 CLR
22:11 35.7 °F 34.4 °F 30.30 in NNE 4.1 mph 6.0 mph 95 % 0.00 in 0.0 W/m2 CLR
22:17 35.7 °F 34.4 °F 30.30 in NNE 3.9 mph 6.0 mph 95 % 0.00 in 0.0 W/m2 CLR
22:22 35.7 °F 34.4 °F 30.29 in NNE 3.4 mph 5.0 mph 95 % 0.00 in 0.0 W/m2 CLR
22:27 35.7 °F 34.4 °F 30.29 in NNE 3.5 mph 5.8 mph 95 % 0.00 in 0.0 W/m2 CLR
22:32 35.7 °F 34.4 °F 30.29 in NE 4.4 mph 8.1 mph 95 % 0.00 in 0.0 W/m2 CLR
22:37 35.7 °F 34.4 °F 30.29 in NNE 4.7 mph 5.8 mph 95 % 0.00 in 0.0 W/m2 CLR
22:42 35.7 °F 34.4 °F 30.29 in NNE 3.4 mph 5.8 mph 95 % 0.00 in 0.0 W/m2 CLR
22:47 35.7 °F 34.4 °F 30.29 in NNE 3.4 mph 5.8 mph 95 % 0.00 in 0.0 W/m2 CLR
22:52 35.7 °F 34.4 °F 30.28 in NNE 3.7 mph 4.0 mph 95 % 0.00 in 0.0 W/m2 CLR
22:57 35.7 °F 34.4 °F 30.28 in NE 3.5 mph 4.0 mph 95 % 0.00 in 0.0 W/m2 CLR
23:02 35.7 °F 34.4 °F 30.28 in NE 4.8 mph 10.4 mph 95 % 0.00 in 0.0 W/m2 CLR
23:07 35.7 °F 34.4 °F 30.27 in NNE 4.7 mph 6.9 mph 95 % 0.00 in 0.0 W/m2 CLR
23:12 35.7 °F 34.4 °F 30.27 in NE 4.8 mph 9.2 mph 95 % 0.00 in 0.0 W/m2 CLR
23:17 35.7 °F 34.4 °F 30.27 in NNE 4.6 mph 6.9 mph 95 % 0.00 in 0.0 W/m2 CLR
23:22 35.7 °F 34.4 °F 30.26 in NE 6.2 mph 9.2 mph 95 % 0.00 in 0.0 W/m2 CLR
23:27 35.7 °F 34.4 °F 30.26 in NE 5.0 mph 6.9 mph 95 % 0.00 in 0.0 W/m2 CLR
23:32 35.7 °F 34.4 °F 30.25 in NE 6.3 mph 9.2 mph 95 % 0.00 in 0.0 W/m2 CLR
23:37 35.6 °F 34.3 °F 30.25 in NE 6.2 mph 10.4 mph 95 % 0.00 in 0.0 W/m2 CLR
23:42 35.7 °F 34.4 °F 30.25 in NNE 3.0 mph 4.6 mph 95 % 0.00 in 0.0 W/m2 CLR
23:47 35.7 °F 34.4 °F 30.24 in NE 3.2 mph 6.9 mph 95 % 0.00 in 0.0 W/m2 CLR
23:52 35.7 °F 34.4 °F 30.24 in NE 2.2 mph 3.5 mph 95 % 0.00 in 0.0 W/m2 CLR
23:57 35.7 °F 34.4 °F 30.25 in NE 3.7 mph 5.0 mph 95 % 0.00 in 0.0 W/m2 CLR
Air Products Campus Weather
Compliments of Weather Underground - 3.5 mb